EW7304 Weather Reports


Display with metric or nautical units.
time (UTC)temp
F
wind
direction
speed
MPH
gust
MPH
rain 1hr
in
rain 24hr
in
rain mn
in
humidity
%
barometer
mb
20260831050010 82 214 0.0 0.0 0.00 0.00 0.00 84 1015.4
20260831044510 82 214 0.0 0.0 0.00 0.00 0.00 84 1015.3
20260831043008 83 214 0.0 0.0 0.00 0.00 0.00 83 1015.3
20260831041508 83 214 0.0 0.0 0.00 0.00 0.00 82 1015.3
20260831040026 83 214 0.0 0.0 0.00 0.00 0.00 82 1015.1
20260831034507 83 224 0.0 0.0 0.00 0.00 0.00 81 1015.1
20260831033007 83 224 0.0 0.0 0.00 0.00 0.00 81 1015.0
20260831031507 84 224 0.0 0.0 0.00 0.00 0.00 81 1014.9
20260831030005 84 226 0.0 0.0 0.00 0.00 0.00 80 1014.8
20260831024505 84 226 0.0 0.0 0.00 0.00 0.00 79 1014.6
20260831023005 85 228 0.0 0.0 0.00 0.00 0.00 79 1014.4
20260831021515 85 210 0.0 2.0 0.00 0.00 0.00 78 1014.2
20260831020003 85 138 0.0 1.0 0.00 0.00 0.00 78 1014.1
20260831014503 86 219 0.0 2.0 0.00 0.00 0.00 76 1013.9
20260831013002 86 217 0.0 2.0 0.00 0.00 0.00 75 1014.0
20260831011504 87 230 0.0 4.0 0.00 0.00 0.00 74 1013.9
20260831010001 87 190 0.0 3.0 0.00 0.00 0.00 73 1013.8
20260831004502 88 227 0.0 4.0 0.00 0.00 0.00 71 1013.7
20260831003100 89 221 0.0 3.0 0.00 0.00 0.00 70 1013.6
20260831001607 90 216 0.0 1.0 0.00 0.00 0.00 67 1013.7
20260831000059 91 166 0.0 3.0 0.00 0.00 0.00 65 1013.9
20260830234558 92 217 0.0 4.0 0.00 0.00 0.00 62 1013.7
20260830233056 92 58 0.0 6.0 0.00 0.00 0.00 62 1013.6
20260830231556 93 87 0.0 2.0 0.00 0.00 0.00 60 1013.6
20260830230056 93 131 0.0 3.0 0.00 0.00 0.00 60 1013.6
20260830224605 94 72 0.0 5.0 0.00 0.00 0.00 59 1013.7
20260830223054 94 221 0.0 5.0 0.00 0.00 0.00 58 1013.6
20260830221553 94 9 1.0 4.0 0.00 0.00 0.00 61 1013.5
20260830214600 94 86 2.0 7.0 0.00 0.00 0.00 62 1013.5
20260830213049 94 98 1.0 4.0 0.00 0.00 0.00 63 1013.5
20260830211547 95 77 1.0 4.0 0.00 0.00 0.00 61 1013.8
20260830210045 94 116 1.0 6.0 0.00 0.00 0.00 63 1014.0
20260830204544 94 68 1.0 5.0 0.00 0.00 0.00 64 1014.2
20260830203042 94 35 0.0 6.0 0.00 0.00 0.00 65 1014.3
20260830201540 94 11 1.0 6.0 0.00 0.00 0.00 64 1014.6
20260830200038 95 74 1.0 6.0 0.00 0.00 0.00 64 1014.7
20260830194537 95 163 0.0 3.0 0.00 0.00 0.00 63 1014.9
20260830193034 96 87 0.0 4.0 0.00 0.00 0.00 63 1015.1
20260830191531 96 253 0.0 4.0 0.00 0.00 0.00 60 1015.4
20260830190032 98 29 0.0 3.0 0.00 0.00 0.00 57 1015.6
20260830184526 97 208 0.0 3.0 0.00 0.00 0.00 54 1015.7
20260830183023 97 207 0.0 4.0 0.00 0.00 0.00 55 1016.0
20260830181531 95 214 0.0 2.0 0.00 0.00 0.00 56 1016.2
20260830180025 94 220 1.0 7.0 0.00 0.00 0.00 57 1016.5
20260830174523 93 40 0.0 2.0 0.00 0.00 0.00 60 1016.8
20260830173014 93 212 1.0 4.0 0.00 0.00 0.00 63 1017.0
20260830171513 92 224 0.0 4.0 0.00 0.00 0.00 64 1017.0
20260830170007 91 214 0.0 4.0 0.00 0.00 0.00 65 1017.1
20260830164506 91 51 0.0 2.0 0.00 0.00 0.00 66 1017.1
20260830163004 90 237 0.0 3.0 0.00 0.00 0.00 69 1017.1
20260830161504 90 206 0.0 2.0 0.00 0.00 0.00 71 1017.2
20260830160003 89 214 0.0 4.0 0.00 0.00 0.00 72 1017.3
20260830154503 89 217 0.0 4.0 0.00 0.00 0.00 72 1017.2
20260830153001 89 216 0.0 5.0 0.00 0.00 0.00 74 1017.2
20260830151501 91 218 0.0 1.0 0.00 0.00 0.00 73 1017.3
20260830150003 89 218 0.0 1.0 0.00 0.00 0.00 74 1017.3
20260830144600 90 214 0.0 0.0 0.00 0.00 0.00 73 1017.4
20260830143104 89 212 0.0 0.0 0.00 0.00 0.00 75 1017.4
20260830141559 89 229 0.0 0.0 0.00 0.00 0.00 77 1017.4
20260830140106 89 222 0.0 0.0 0.00 0.00 0.00 78 1017.3
20260830134552 87 222 0.0 0.0 0.00 0.00 0.00 81 1017.1
20260830133045 85 222 0.0 0.0 0.00 0.00 0.00 86 1017.0
20260830131557 82 222 0.0 0.0 0.00 0.00 0.00 89 1016.7
20260830130038 79 222 0.0 0.0 0.00 0.00 0.00 95 1016.7
20260830124537 77 222 0.0 0.0 0.00 0.00 0.00 95 1016.6
20260830123037 76 222 0.0 0.0 0.00 0.00 0.00 95 1016.4
20260830121536 76 222 0.0 0.0 0.00 0.00 0.00 95 1016.4
20260830120035 76 222 0.0 0.0 0.00 0.00 0.00 95 1016.4
20260830114542 76 220 0.0 0.0 0.00 0.00 0.00 95 1016.3
20260830113032 76 220 0.0 0.0 0.00 0.00 0.00 94 1016.3
20260830111531 77 220 0.0 0.0 0.00 0.00 0.00 94 1016.2
20260830110034 77 220 0.0 0.0 0.00 0.00 0.00 94 1016.1
20260830104528 77 220 0.0 0.0 0.00 0.00 0.00 94 1016.1
20260830103027 77 220 0.0 0.0 0.00 0.00 0.00 94 1016.0
20260830101526 77 220 0.0 0.0 0.00 0.00 0.00 94 1015.9
20260830100026 77 220 0.0 0.0 0.00 0.00 0.00 94 1015.8
20260830094526 77 220 0.0 0.0 0.00 0.00 0.00 93 1015.8
20260830093023 77 220 0.0 0.0 0.00 0.00 0.00 93 1015.8
20260830091527 77 220 0.0 0.0 0.00 0.00 0.00 93 1015.7
20260830090022 77 220 0.0 0.0 0.00 0.00 0.00 93 1015.6
20260830084521 78 220 0.0 0.0 0.00 0.00 0.00 92 1015.8
20260830083019 78 220 0.0 0.0 0.00 0.00 0.00 93 1015.8
20260830081524 78 220 0.0 0.0 0.00 0.00 0.00 92 1015.8
20260830080019 78 220 0.0 0.0 0.00 0.00 0.00 91 1015.9
20260830074525 79 220 0.0 0.0 0.00 0.00 0.00 91 1016.0
20260830073011 79 220 0.0 0.0 0.00 0.00 0.00 90 1016.0
20260830071512 80 220 0.0 0.0 0.00 0.00 0.00 90 1016.1
20260830070009 80 220 0.0 0.0 0.00 0.00 0.00 89 1016.0
20260830064508 80 220 0.0 0.0 0.00 0.00 0.00 89 1015.9
20260830063009 80 220 0.0 0.0 0.00 0.00 0.00 88 1015.9
20260830061515 80 221 0.0 1.0 0.00 0.00 0.00 88 1016.0
20260830060004 81 217 0.0 1.0 0.00 0.00 0.00 88 1016.0
20260830054510 81 219 0.0 0.0 0.00 0.00 0.00 88 1016.0
20260830053001 81 222 0.0 0.0 0.00 0.00 0.00 88 1016.0
20260830051602 81 219 0.0 0.0 0.00 0.00 0.00 88 1015.9